Regional Weather Roundup
Issued by NWS New Orleans/Baton Rouge, LA

Home | Current Version | Previous Version | Text Only | Print | Product List | Glossary On
Versions: 1 2 3 4 5 6 7 8 9 10 11 12 13 14 15 16 17 18 19 20 21 22 23 24 25 26 27
000
ASUS44 KLIX 250613
RWRLIX
NEW ORLEANS REGIONAL WEATHER ROUNDUP
NATIONAL WEATHER SERVICE NEW ORLEANS LA
100 AM CDT MON SEP 25 2017

NOTE: "FAIR" INDICATES FEW OR NO CLOUDS BELOW 12,000 FEET WITH NO
      SIGNIFICANT WEATHER AND/OR OBSTRUCTIONS TO VISIBILITY.
      SKY/WX - SKY CONDITION AND SIGNIFICANT WEATHER.
      TMP - AIR TEMPERATURE.     DP    - DEWPOINT TEMPERATURE.
      RH  - RELATIVE HUMIDITY.   PRES  - PRESSURE.
      HI  - HEAT INDEX.          WCI   - WIND CHILL INDEX.

*  THESE STATIONS ARE NOT NWS OR FAA STATIONS AND ARE NOT UNDER
   NWS QUALITY CONTROL.

LAZ038-040-048-061>063-065>067-069-250700-
SOUTHEAST LOUISIANA

CITY           SKY/WX    TMP DP  RH WIND       PRES   REMARKS
N.O. INTL ARPT PTCLDY    77  70  79 E3        29.90F
6HR MIN TEMP:  75; 6HR MAX TEMP:  82;

N.O. LAKEFRONT CLEAR     79  72  79 E9        29.91S
6HR MIN TEMP:  78; 6HR MAX TEMP:  82;

N.O. DOWNTOWN*   N/A     78  70  76 CALM      29.92F
6HR MIN TEMP:  77; 6HR MAX TEMP:  83;

RESERVE*         N/A     75  72  91 CALM      29.91F
6HR MIN TEMP:  75; 6HR MAX TEMP:  83;

SLIDELL        CLEAR     68  65  90 N3        29.91F
6HR MIN TEMP:  68; 6HR MAX TEMP:  79; 6HR PCP:  0.06;

BATON ROUGE    CLEAR     71  67  87 CALM      29.92F
6HR MIN TEMP:  70; 6HR MAX TEMP:  82;

BOOTHVILLE     PTCLDY    80  72  76 E10       29.89F
6HR MIN TEMP:  79; 6HR MAX TEMP:  80;

BELLE CHASSE   NOT AVBL
BOGALUSA*        N/A     68  65  89 CALM      29.95S
6HR MIN TEMP:  68; 6HR MAX TEMP:  77;

GALLIANO*      CLEAR     77  69  75 E3        29.90S
6HR MIN TEMP:  77; 6HR MAX TEMP:  80;

NEW ROADS*       N/A     71  68  89 CALM      29.93S
6HR MIN TEMP:  71; 6HR MAX TEMP:  81;

GONZALES*        N/A     71  69  94 CALM      29.91S
6HR MIN TEMP:  70; 6HR MAX TEMP:  82;

HAMMOND*       CLEAR     70  66  88 CALM      29.92S
HOUMA*         NOT AVBL
PORT FOURCHON* MOCLDY    81  70  69 E13       29.90S

$$

MSZ070-080>082-250700-
SOUTHERN MISSISSIPPI

CITY           SKY/WX    TMP DP  RH WIND       PRES   REMARKS
MCCOMB         CLEAR     67  65  93 N3        29.95S
6HR MIN TEMP:  67; 6HR MAX TEMP:  74; 6HR PCP: TRACE;

GULFPORT       CLEAR     71  70  96 N3        29.91S
6HR MIN TEMP:  71; 6HR MAX TEMP:  74; 6HR PCP:  0.01;

BILOXI         CLEAR     71  69  93 NE6       29.91S
6HR MIN TEMP:  71; 6HR MAX TEMP:  73; 6HR PCP:  0.02;

PASCAGOULA     CLOUDY    70  68  93 CALM      29.91F
6HR MIN TEMP:  69; 6HR MAX TEMP:  74;


$$

COASTAL OBSERVATIONS
LAKE AND NEARSHORE STATIONS

STATION/POSITION TIME  TEMP    WIND        PRES    WAVE
                       AIR SEA DIR/SP/G            HT/PER
                 (UTC) (F)     (DEG/KT/KT) (MB)    (FT/S)
PASCAGOULA       0530   78      80/  5/ 10 1012.3
WAVELAND YACHT   0530   75 83   60/  8/ 11 1012.9
GRAND ISLE       0530   80 84  100/  9/ 15 1012.4
SOUTHWEST PASS   0530   82      80/ 15/ 18   N/A
NEW CANAL        0530   77 83   80/  5/  8 1012.6
SHELL BEACH      0530   78 85   60/  8/ 10 1012.7

OFFSHORE STATIONS

STATION/POSITION TIME  TEMP    WIND        PRES    WAVE
                       AIR SEA DIR/SP/G            HT/PER
                 (UTC) (F)     (DEG/KT/KT) (MB)    (FT/S)
64 S DAUPHIN ISL 0550   78 82  100/ 10/ 12 1011.7    5/ 7

$$





USA.gov is the U.S. government's official web portal to all federal, state and local government web resources and services.